Regional Weather Roundup
Issued by NWS Newport/Morehead, NC

Current Version | Previous Version | Text Only | Print | Product List | Glossary On
Versions: 1 2 3 4 5 6 7 8 9 10 11 12 13 14 15 16 17 18 19 20 21 22 23 24 25 26 27 28 29 30 31 32 33 34 35 36 37 38 39 40 41 42 43 44 45 46 47 48 49 50
000
ASUS42 KMHX 200125
RWRMHX
WEATHER ROUNDUP FOR EASTERN NORTH CAROLINA
NATIONAL WEATHER SERVICE NEWPORT/MOREHEAD CITY NC
900 PM EDT THU APR 19 2018

NOTE: "FAIR" INDICATES FEW OR NO CLOUDS BELOW 12,000 FEET
WITH NO SIGNIFICANT WEATHER AND/OR OBSTRUCTIONS TO VISIBILITY

NCZ015>017-031-032-045>047-102-103-200200-
NORTH COAST

CITY           SKY/WX    TMP DP  RH WIND       PRES   REMARKS
EDENTON        FAIR      59  36  41 NW9       30.05R
ELIZABETH CITY FAIR      58  43  57 N12       30.04R
KITTY HAWK     FAIR      50  43  76 CALM      30.02R
MANTEO         FAIR      52  43  71 NE13      30.04R

$$

NCZ045>047-081-094-103-104-200200-
CENTRAL COAST

CITY           SKY/WX    TMP DP  RH WIND       PRES   REMARKS
FRISCO         MOCLDY    56  46  69 NE14G23   30.01R

$$

NCZ095-097-098-100-101-200200-
SOUTHERN COAST

CITY           SKY/WX    TMP DP  RH WIND       PRES   REMARKS
BEAUFORT       CLOUDY    64  39  39 N17G28    30.01R
CEDAR ISLAND   NOT AVBL
JACKSONVILLE   MOCLDY    62  35  36 NW21G30   30.03R
PINEY ISLAND   NOT AVBL
WILMINGTON     FAIR      65  38  36 N17G24    30.02R


$$

NCZ011>013-027>030-043-044-078>080-089-090>093-098-200200-
COASTAL PLAIN

CITY           SKY/WX    TMP DP  RH WIND       PRES   REMARKS
AHOSKIE        FAIR      52  31  44 NW3       30.10R
CLINTON        FAIR      58  34  40 N7G17     30.08R
ELIZABETHTOWN  FAIR      59  31  34 MISG      30.07R
GOLDSBORO      FAIR      56  31  39 NW10G22   30.08R
GREENVILLE     FAIR      55  32  41 N8        30.10R
HAVELOCK       NOT AVBL
KENANSVILLE    FAIR      57  34  41 N14G21    30.08R
KINSTON        FAIR      55  32  41 NW10G25   30.09R
NEW BERN       MOCLDY    59  36  42 N15G22    30.05R
RICHLANDS      FAIR      60  34  37 N9G18     30.06R
ROCKY MOUNT    FAIR      52  30  43 NW10G26   30.10R
WASHINGTON     FAIR      56  32  39 NW6G16    30.08R
WHITEVILLE     FAIR      64  35  34 N7G17     30.04R

$$

AMZ130-135-150-152-154-156-158-170-250-252-270-ANZ085-086-088-633-658-670-200200-
MARINE OBSERVATIONS

STATION/POSITION TIME  TEMP    WIND        PRES    WAVE   SWELL
                       AIR SEA DIR/SP/G            HT/PER HT/PER
                 (UTC) (F)     (DEG/KT/KT) (MB)    (FT/S) (FT/S)
CHESAPEAKE LIGHT NOT AVBL
64 E VA BEACH    0050   51 50  350/ 16/ 19 1016.6    5/ 8   2/ 8
DUCK             0100   52 50   20/ 15/ 17 1016.7
2 E DUCK         0100      49                N/A     3/ 5   2/13
OREGON INLET     0100   53 63   20/  9/ 14 1016.9
13E OREGON INLT  0048      52                N/A     4/ 4   3/ 8
HATTERAS CG      0100   57 64   30/ 17/ 24 1016.1
DIAMOND BUOY     0100   60      20/ 23/ 29 1015.7
CAPE LOOKOUT     0100          350/ 19/ 23 1016.3
BEAUFORT LAB     0100   64 64  350/ 15/ 22 1016.6
30 SE NEW RVR IN 0108   66 66   20/ 17/ 27 1016.4
30 SE NEW RVR IN 0100      66                N/A     7/ 7
27 SE WRIGHTSVLE 0108   66 66  360/ 21/ 33 1015.7
5 SE WRIGHTSVLE  0108   65 60  360/ 14/ 21 1015.3
225 S CAPE HAT   0100   73     230/ 17/ 21 1015.6
41 SE CHARLESTON 0100   69     230/ 12/ 16 1015.0

$$




USA.gov is the U.S. government's official web portal to all federal, state and local government web resources and services.